Vertical_Velocity
-2 -0 -4 -2 0 2 1 6 4 6 7 10 6 5 -2 4 -1 5 1 15 7 -1 1 7 1 -1 6 1 2 2 -3 -3 4 -0 -3 -13 -5 2 -4 -1 1 -1 4 -2 -2
-2 -2 -2 -1 -3 -3 2 -2 1 4 5 4 9 7 3 -3 -1 -0 15 3 3 7 2 8 0 -0 4 1 -10 -3 -5 -14 21 20 -16 -7 5 4 -5 1 -2 -3 0 0 -3
-3 -2 -3 -7 -5 -2 -3 2 8 4 0 1 4 4 5 -3 -10 30 5 9 5 8 2 3 -3 -1 2 2 -8 -12 -27 20 13 37 5 3 1 4 -2 -3 2 1 1 0 -4
-1 -7 -6 -2 -8 -7 -3 -3 3 -4 -3 -3 0 1 -2 -6 11 8 -12 -1 3 5 -5 -1 -3 1 -7 -18 3 -4 5 2 22 15 19 13 5 3 -3 -6 3 1 -3 -3 -1
-2 -6 -2 -6 -10 -6 -6 -2 -1 6 -2 -1 -1 1 1 -4 12 9 -2 3 12 4 0 -4 -2 2 -2 -1 4 4 3 6 10 -9 2 28 26 1 -1 1 -2 4 0 -3 -2
1 -4 -3 -1 -6 -6 -7 -4 -0 -2 -3 -2 -1 -1 -2 -0 -17 9 -3 8 3 6 0 -7 2 5 6 -3 -9 19 3 9 -15 16 5 -3 13 -1 -4 -3 -1 -2 4 1 0
3 2 -4 -5 -6 -3 -5 -4 -5 -1 0 1 2 -2 -1 -2 -5 -1 -5 3 2 5 -1 3 6 -5 2 -1 11 8 5 -3 2 1 11 7 10 2 3 -2 3 -0 4 3 1
4 4 -0 -2 -4 -1 -4 -5 -5 -3 -2 0 2 -3 0 -1 -3 5 3 1 6 -14 2 4 2 7 -1 -5 -1 3 2 -13 9 -3 -5 2 12 11 0 3 1 -1 1 3 1
-2 0 3 -0 -2 -0 -1 0 -5 -2 -2 -1 -1 -3 -0 -3 2 12 4 6 5 -6 3 4 5 7 -5 -6 2 3 -3 -11 -2 -4 -1 -6 9 16 -8 -1 1 1 -1 1 0
-4 -4 -4 2 -1 -2 -5 0 -3 -2 -4 0 -2 -5 -1 0 -6 -7 -1 3 2 1 4 10 1 -3 -5 -18 -41 -12 -15 -6 4 1 3 -3 5 6 -9 -3 5 3 -2 -2 -0
-2 2 4 -9 -1 -1 -4 3 4 -3 1 3 1 0 -3 1 -8 -3 10 5 8 8 4 14 -14 -41 16 8 1 4 7 7 3 -3 -1 7 7 0 -7 -4 -2 1 3 -0 -1
-1 2 2 3 -6 1 2 -5 7 -1 6 2 0 -4 0 0 -3 -6 6 6 6 -1 2 -0 -0 6 2 0 8 6 -2 -2 2 -4 -1 8 -1 7 -7 -3 -2 -2 -5 -3 -6
-2 -1 1 3 -1 -0 -0 -1 -6 1 0 4 1 1 -1 -2 -2 0 5 13 8 6 15 7 7 -3 1 -1 -3 -2 2 1 3 2 -3 0 -3 -16 -10 -0 -1 -3 0 -5 -2
0 1 3 -2 2 4 -8 -6 -8 0 -4 4 -5 -3 -2 1 -4 0 2 -8 21 7 10 -3 1 1 2 2 2 1 3 -7 -3 -4 -2 3 -12 -12 3 5 0 -0 -3 -3 -2
-1 -1 -2 4 -5 2 5 2 -14 -0 -7 2 6 -7 -4 -2 -9 0 -3 8 -4 2 -3 -10 -4 -3 -2 11 -1 2 -2 -4 1 -1 -1 -4 -18 10 -3 -9 -3 2 1 -5 -3
1 0 -2 0 4 -2 3 -2 -8 -11 -9 3 6 27 9 -5 -2 -4 2 12 17 31 13 9 -4 -4 -1 -2 2 1 -1 2 -1 -3 -14 4 -10 6 -13 16 2 -3 -2 -0 -1
-1 -2 1 -2 1 1 4 -4 -3 -12 -1 2 0 0 6 9 -7 1 -4 -2 4 17 11 3 1 -1 5 -0 1 -4 1 -2 -4 -14 -3 6 -12 18 -5 0 0 -1 -1 -2 -2
-3 1 3 -2 4 -3 2 -4 1 -1 -8 -3 -3 6 2 5 7 18 -7 -11 -1 3 -0 -3 -16 -6 -4 -2 6 5 0 1 -2 -3 13 5 -31 1 0 0 -4 -0 -0 -3 2
-1 -2 -1 -1 -4 -2 -4 -3 -7 1 -2 2 1 -4 -5 -2 -0 1 -4 -5 -6 1 -8 -2 3 -1 -4 -1 3 1 -6 3 -3 -3 -4 -5 -6 4 10 2 2 5 4 2 8
0 -3 -5 -5 -4 1 -3 3 1 -9 -3 1 3 -2 1 -4 -3 1 -0 -5 -1 -3 -5 -1 -7 2 -2 0 -2 -4 3 -6 -4 -4 -4 -0 -7 -6 5 10 12 9 5 5 3
-0 -2 -3 2 -1 6 -2 -6 3 1 -4 -7 -3 1 1 1 -1 -4 -1 1 -2 -3 2 -1 2 -2 -5 -5 0 -0 -11 -8 0 -5 -4 -6 -7 0 10 5 4 -0 -5 1 6
-0 3 -2 -2 1 -7 2 6 -3 5 -2 -2 1 -0 -3 0 4 1 3 4 0 2 0 2 -1 -4 4 -1 -1 -4 -4 -5 -7 2 -3 -3 1 3 2 -1 -2 -1 -2 7 3
5 -0 1 -2 1 4 -5 1 3 -4 4 2 -0 -0 1 -1 -1 1 0 -2 -3 -2 -1 0 0 2 -0 -1 -7 -10 -0 -3 -3 -0 0 -3 4 1 3 2 1 -3 2 -7 -2
3 2 -2 -6 -5 -5 4 -4 0 2 0 1 -1 0 -2 -3 -0 0 -0 0 2 4 2 2 2 3 -3 2 2 1 0 -2 -3 -6 7 -0 2 3 -2 -1 1 1 -1 -6 -7
4 3 -3 1 -1 -1 -6 -0 4 -3 -1 4 1 -3 -0 -2 -2 -1 1 -1 -1 -2 0 -0 -1 -1 -2 -2 -2 -1 -1 -1 -4 8 -11 6 -4 2 4 -0 1 -2 -6 -2 1
10 7 1 0 2 -4 1 -3 -2 4 -0 -3 1 1 -2 -0 -2 0 -1 -1 0 -1 -0 -1 0 -0 0 -0 1 -3 1 -1 1 -1 -1 1 3 -1 -2 1 3 -1 -2 0 0
3 6 2 4 -2 -0 3 3 -4 -0 -1 1 -3 2 -0 1 1 -1 -1 -0 0 1 -0 -1 -1 0 1 3 -1 -4 -2 1 -3 -5 -2 -0 1 -0 2 1 3 -1 1 1 2
Height
5681 5675 5667 5657 5646 5635 5624 5616 5611 5610 5611 5615 5619 5624 5632 5640 5648 5658 5668 5678 5684 5691 5698 5704 5709 5717 5728 5732 5741 5750 5758 5767 5782 5792 5795 5798 5803 5808 5816 5826 5828 5835 5841 5845 5849
5675 5667 5657 5644 5630 5613 5599 5589 5584 5585 5588 5592 5598 5606 5614 5623 5633 5647 5655 5660 5671 5680 5688 5696 5703 5710 5719 5724 5733 5740 5750 5765 5781 5788 5781 5794 5799 5802 5809 5818 5821 5829 5836 5842 5845
5667 5657 5645 5629 5612 5592 5579 5573 5571 5569 5569 5572 5576 5584 5594 5606 5621 5635 5637 5646 5657 5669 5676 5684 5692 5700 5710 5717 5726 5736 5752 5763 5771 5776 5778 5785 5791 5797 5802 5810 5815 5823 5831 5836 5841
5661 5649 5635 5620 5602 5582 5571 5566 5563 5563 5562 5563 5564 5566 5573 5587 5607 5612 5622 5633 5646 5658 5668 5677 5687 5694 5701 5711 5724 5732 5743 5753 5763 5762 5772 5780 5784 5790 5795 5803 5809 5816 5823 5828 5833
5657 5643 5630 5615 5598 5582 5568 5562 5560 5557 5557 5557 5558 5559 5562 5569 5587 5600 5613 5627 5636 5649 5661 5671 5683 5691 5698 5709 5716 5724 5733 5743 5743 5754 5765 5772 5777 5782 5789 5797 5804 5812 5817 5821 5827
5654 5641 5627 5614 5598 5583 5569 5560 5558 5555 5553 5553 5553 5553 5554 5558 5564 5585 5601 5615 5625 5639 5652 5664 5678 5685 5692 5701 5709 5719 5721 5727 5737 5751 5756 5764 5770 5773 5783 5791 5796 5803 5812 5816 5821
5652 5640 5627 5615 5599 5586 5571 5559 5553 5549 5548 5549 5549 5548 5551 5554 5558 5568 5584 5603 5618 5630 5644 5659 5669 5679 5687 5695 5703 5708 5710 5718 5735 5740 5749 5758 5760 5769 5776 5784 5791 5796 5805 5811 5815
5650 5640 5627 5616 5602 5589 5576 5563 5553 5548 5548 5547 5547 5548 5550 5551 5554 5563 5572 5592 5610 5622 5639 5653 5662 5671 5681 5689 5696 5702 5704 5712 5727 5734 5742 5750 5762 5766 5767 5776 5783 5789 5796 5803 5810
5650 5639 5628 5617 5604 5592 5579 5566 5555 5551 5549 5549 5548 5548 5550 5550 5552 5561 5567 5583 5603 5619 5636 5647 5656 5667 5674 5685 5692 5694 5701 5713 5721 5732 5739 5747 5756 5762 5760 5771 5777 5784 5789 5795 5802
5650 5640 5630 5620 5607 5596 5583 5570 5560 5552 5550 5548 5547 5550 5550 5552 5553 5559 5566 5578 5598 5618 5633 5644 5651 5660 5670 5682 5691 5700 5706 5712 5722 5729 5735 5742 5750 5752 5755 5764 5773 5778 5783 5788 5795
5650 5641 5632 5622 5611 5600 5589 5577 5566 5557 5550 5549 5549 5549 5550 5552 5555 5560 5566 5578 5597 5615 5631 5638 5647 5661 5678 5684 5691 5698 5704 5708 5716 5724 5729 5737 5741 5745 5750 5755 5764 5770 5776 5781 5787
5650 5643 5633 5626 5616 5605 5594 5584 5575 5566 5555 5549 5548 5548 5549 5551 5554 5560 5568 5580 5595 5613 5630 5636 5653 5661 5668 5678 5687 5693 5700 5707 5710 5715 5721 5727 5733 5737 5741 5750 5758 5763 5768 5774 5779
5650 5644 5636 5628 5621 5612 5601 5594 5586 5574 5564 5555 5550 5548 5549 5552 5555 5559 5570 5581 5596 5613 5625 5640 5652 5658 5666 5676 5685 5692 5699 5703 5708 5711 5716 5722 5725 5732 5742 5746 5752 5759 5763 5768 5773
5652 5646 5638 5631 5625 5619 5609 5601 5594 5585 5574 5568 5560 5555 5553 5555 5560 5566 5577 5590 5602 5616 5629 5639 5649 5657 5665 5673 5682 5689 5694 5699 5703 5707 5713 5717 5723 5730 5737 5740 5744 5752 5758 5762 5767
5654 5647 5641 5632 5627 5624 5617 5609 5602 5596 5585 5581 5573 5568 5565 5566 5572 5577 5589 5599 5611 5623 5631 5640 5650 5658 5664 5673 5679 5685 5690 5696 5700 5702 5706 5711 5715 5725 5728 5734 5742 5746 5751 5755 5759
5654 5648 5643 5636 5630 5627 5622 5616 5611 5606 5595 5593 5587 5584 5583 5584 5587 5590 5598 5607 5616 5624 5632 5640 5649 5656 5663 5670 5676 5683 5688 5692 5695 5697 5700 5706 5709 5716 5724 5734 5734 5740 5746 5749 5752
5655 5648 5643 5638 5634 5630 5627 5622 5620 5614 5609 5604 5600 5599 5597 5599 5604 5605 5609 5613 5617 5624 5631 5639 5648 5655 5662 5667 5674 5680 5684 5687 5690 5692 5697 5697 5699 5713 5717 5723 5726 5731 5737 5742 5745
5656 5649 5644 5640 5636 5633 5631 5628 5625 5620 5617 5613 5610 5608 5610 5609 5610 5612 5617 5618 5622 5630 5636 5642 5648 5655 5662 5668 5673 5676 5680 5684 5685 5687 5691 5692 5694 5705 5711 5716 5721 5724 5728 5734 5739
5655 5649 5645 5642 5639 5635 5634 5632 5627 5625 5623 5622 5620 5616 5616 5617 5618 5618 5620 5623 5627 5633 5639 5645 5650 5655 5661 5665 5670 5673 5676 5680 5683 5684 5684 5686 5689 5696 5703 5708 5714 5717 5720 5725 5731
5654 5648 5643 5641 5638 5637 5635 5634 5631 5628 5625 5625 5625 5623 5621 5621 5624 5625 5627 5627 5630 5636 5640 5645 5649 5654 5658 5662 5666 5668 5673 5677 5679 5679 5679 5681 5683 5690 5696 5702 5706 5709 5713 5717 5722
5653 5646 5641 5637 5638 5636 5633 5633 5632 5631 5630 5630 5629 5628 5627 5626 5625 5627 5629 5632 5634 5638 5642 5646 5650 5653 5655 5659 5662 5664 5669 5673 5675 5675 5675 5676 5680 5684 5689 5693 5696 5698 5701 5706 5711
5652 5645 5640 5635 5634 5633 5632 5631 5632 5631 5631 5630 5631 5630 5630 5630 5630 5630 5631 5634 5636 5639 5641 5644 5645 5647 5651 5655 5659 5663 5666 5668 5670 5672 5671 5671 5675 5677 5681 5686 5689 5692 5695 5700 5703
5649 5641 5635 5633 5630 5630 5630 5629 5629 5630 5631 5631 5632 5632 5631 5632 5633 5632 5632 5634 5635 5637 5639 5642 5643 5645 5649 5654 5656 5659 5662 5665 5666 5667 5667 5667 5671 5673 5677 5680 5683 5685 5688 5690 5694
5646 5639 5631 5629 5625 5625 5625 5626 5626 5626 5627 5629 5631 5631 5632 5632 5632 5634 5634 5635 5636 5637 5639 5640 5642 5644 5645 5649 5653 5656 5660 5661 5662 5662 5665 5664 5667 5670 5672 5675 5677 5680 5682 5685 5688
5644 5635 5627 5624 5621 5620 5621 5622 5622 5624 5624 5625 5627 5629 5631 5632 5633 5633 5633 5634 5635 5636 5637 5639 5640 5642 5643 5645 5648 5650 5652 5656 5656 5659 5658 5663 5662 5665 5668 5670 5672 5674 5677 5680 5683
5644 5633 5626 5619 5617 5615 5615 5618 5617 5619 5622 5622 5623 5625 5627 5629 5630 5631 5632 5633 5634 5635 5636 5637 5638 5640 5641 5642 5644 5647 5649 5652 5652 5653 5655 5656 5660 5661 5664 5666 5668 5669 5672 5674 5676
5642 5630 5622 5617 5613 5612 5611 5611 5614 5613 5616 5618 5620 5622 5623 5625 5627 5628 5629 5630 5631 5632 5633 5634 5635 5636 5637 5638 5640 5643 5645 5646 5647 5648 5650 5652 5656 5657 5660 5661 5663 5664 5666 5669 5671